[keps] orb07200.amsat

Ray Hoad r.hoad at att.net
Thu Jul 19 19:42:22 PDT 2007


SB KEPS @ AMSAT  $ORB07200.O
Orbital Elements  07200.OSCAR

HR AMSAT ORBITAL ELEMENTS FOR OSCAR SATELLITES
FROM WA5QGD FORT WORTH,TX July 19, 2007
Send Subscribe/unsubscribe to KEPS at 
http://www.amsat.org/mailman/listinfo/keps
BID: ORB07200.O
TO ALL RADIO AMATEURS BT

Satellite: AO-07
Catalog number: 07530
Epoch time:      07200.70254576
Element set:     929
Inclination:      101.5119 deg
RA of node:       237.7516 deg
Eccentricity:    0.0011796
Arg of perigee:   191.4264 deg
Mean anomaly:     168.6536 deg
Mean motion:   12.53572443 rev/day
Decay rate:       -2.8e-07 rev/day^2
Epoch rev:           49519
Checksum:              308

Satellite: AO-10
Catalog number: 14129
Epoch time:      07199.14208184
Element set:    0401
Inclination:      026.3432 deg
RA of node:       266.3562 deg
Eccentricity:    0.6065357
Arg of perigee:   039.8439 deg
Mean anomaly:     351.7403 deg
Mean motion:   02.05869777 rev/day
Decay rate:      -1.56e-06 rev/day^2
Epoch rev:           18120
Checksum:              304

Satellite: UO-11
Catalog number: 14781
Epoch time:      07199.90835636
Element set:    0425
Inclination:      098.1876 deg
RA of node:       223.2185 deg
Eccentricity:    0.0010198
Arg of perigee:   071.8058 deg
Mean anomaly:     288.4262 deg
Mean motion:   14.79568159 rev/day
Decay rate:       3.28e-06 rev/day^2
Epoch rev:           25442
Checksum:              337

Satellite: RS-15
Catalog number: 23439
Epoch time:      07199.82314439
Element set:    0073
Inclination:      064.8200 deg
RA of node:       315.7580 deg
Eccentricity:    0.0158588
Arg of perigee:   185.0451 deg
Mean anomaly:     174.8879 deg
Mean motion:   11.27551974 rev/day
Decay rate:       -3.9e-07 rev/day^2
Epoch rev:           51726
Checksum:              336

Satellite: FO-29
Catalog number: 24278
Epoch time:      07199.92957571
Element set:    0559
Inclination:      098.5531 deg
RA of node:       155.3139 deg
Eccentricity:    0.0351323
Arg of perigee:   001.1930 deg
Mean anomaly:     358.9971 deg
Mean motion:   13.52931725 rev/day
Decay rate:       -1.0e-07 rev/day^2
Epoch rev:           53919
Checksum:              333

Satellite: SO-33
Catalog number: 25509
Epoch time:      07200.69864614
Element set:     976
Inclination:      031.4331 deg
RA of node:       041.9209 deg
Eccentricity:    0.0355335
Arg of perigee:   351.5717 deg
Mean anomaly:     007.9054 deg
Mean motion:   14.28170479 rev/day
Decay rate:       3.26e-06 rev/day^2
Epoch rev:           45590
Checksum:              307

Satellite: AO-40
Catalog number: 26609
Epoch time:      07198.59458785
Element set:    0906
Inclination:      005.9434 deg
RA of node:       132.4290 deg
Eccentricity:    0.7977631
Arg of perigee:   342.0109 deg
Mean anomaly:     001.1921 deg
Mean motion:   01.25586988 rev/day
Decay rate:      -2.87e-06 rev/day^2
Epoch rev:           03082
Checksum:              330

Satellite: VO-52
Catalog number: 28650
Epoch time:      07200.66732873
Element set:     680
Inclination:      097.8309 deg
RA of node:       270.6571 deg
Eccentricity:    0.0027934
Arg of perigee:   145.7468 deg
Mean anomaly:     214.5543 deg
Mean motion:   14.81337523 rev/day
Decay rate:       -9.4e-07 rev/day^2
Epoch rev:           11922
Checksum:              318

Satellite: PO-63
Catalog number: 29712
Epoch time:      07200.83788660
Element set:     558
Inclination:      097.9199 deg
RA of node:       259.5428 deg
Eccentricity:    0.0015018
Arg of perigee:   028.7672 deg
Mean anomaly:     331.4346 deg
Mean motion:   14.79765972 rev/day
Decay rate:       5.98e-06 rev/day^2
Epoch rev:            2816
Checksum:              359

/EX
SB KEPS @ AMSAT  $ORB07200.D
Orbital Elements  07200.MICROS

HR AMSAT ORBITAL ELEMENTS FOR THE MICROSATS
FROM WA5QGD FORT WORTH,TX July 19, 2007
Send Subscribe/unsubscribe to KEPS at 
http://www.amsat.org/mailman/listinfo/keps
BID: ORB07200.D
TO ALL RADIO AMATEURS BT

Satellite: AO-16
Catalog number: 20439
Epoch time:      07199.88799593
Element set:    0086
Inclination:      098.1966 deg
RA of node:       192.6974 deg
Eccentricity:    0.0011918
Arg of perigee:   090.3293 deg
Mean anomaly:     269.9256 deg
Mean motion:   14.31765550 rev/day
Decay rate:        1.8e-07 rev/day^2
Epoch rev:           91308
Checksum:              363

Satellite: LO-19
Catalog number: 20442
Epoch time:      07199.92114729
Element set:    0013
Inclination:      098.1799 deg
RA of node:       202.0365 deg
Eccentricity:    0.0012978
Arg of perigee:   089.3072 deg
Mean anomaly:     270.9610 deg
Mean motion:   14.32005843 rev/day
Decay rate:        3.0e-07 rev/day^2
Epoch rev:           91323
Checksum:              291

Satellite: AO-27
Catalog number: 22825
Epoch time:      07199.91209772
Element set:    0735
Inclination:      098.3319 deg
RA of node:       168.4132 deg
Eccentricity:    0.0008501
Arg of perigee:   161.6665 deg
Mean anomaly:     198.4821 deg
Mean motion:   14.29213118 rev/day
Decay rate:       -1.0e-07 rev/day^2
Epoch rev:           72002
Checksum:              298

Satellite: IO-26
Catalog number: 22826
Epoch time:      07200.37394188
Element set:     431
Inclination:      098.3254 deg
RA of node:       169.9120 deg
Eccentricity:    0.0008918
Arg of perigee:   157.7552 deg
Mean anomaly:     202.4033 deg
Mean motion:   14.29459748 rev/day
Decay rate:       -5.0e-08 rev/day^2
Epoch rev:           72017
Checksum:              307

Satellite: PO-28
Catalog number: 22829
Epoch time:      07200.80394520
Element set:     709
Inclination:      098.3143 deg
RA of node:       171.4851 deg
Eccentricity:    0.0010330
Arg of perigee:   131.4885 deg
Mean anomaly:     228.7184 deg
Mean motion:   14.30160986 rev/day
Decay rate:        7.6e-07 rev/day^2
Epoch rev:           72047
Checksum:              295

Satellite: GO-32
Catalog number: 25397
Epoch time:      07200.85329401
Element set:     353
Inclination:      098.4126 deg
RA of node:       246.6350 deg
Eccentricity:    0.0002035
Arg of perigee:   115.5497 deg
Mean anomaly:     244.5890 deg
Mean motion:   14.23128552 rev/day
Decay rate:        1.2e-07 rev/day^2
Epoch rev:           46880
Checksum:              286

Satellite: MO-46
Catalog number: 26548
Epoch time:      07200.14461207
Element set:     848
Inclination:      064.5559 deg
RA of node:       083.8006 deg
Eccentricity:    0.0011421
Arg of perigee:   193.7648 deg
Mean anomaly:     166.3167 deg
Mean motion:   14.83160377 rev/day
Decay rate:       1.37e-06 rev/day^2
Epoch rev:           36827
Checksum:              312

Satellite: NO-44
Catalog number: 26931
Epoch time:      07199.78293439
Element set:     637
Inclination:      067.0530 deg
RA of node:       066.1018 deg
Eccentricity:    0.0007646
Arg of perigee:   262.0481 deg
Mean anomaly:     097.9739 deg
Mean motion:   14.29490445 rev/day
Decay rate:        2.7e-07 rev/day^2
Epoch rev:           30261
Checksum:              323

Satellite: SO-50
Catalog number: 27607
Epoch time:      07200.88580348
Element set:     362
Inclination:      064.5598 deg
RA of node:       345.7543 deg
Eccentricity:    0.0058032
Arg of perigee:   351.1409 deg
Mean anomaly:     008.8669 deg
Mean motion:   14.71273689 rev/day
Decay rate:       -2.5e-07 rev/day^2
Epoch rev:           24593
Checksum:              327

Satellite: CO-55
Catalog number: 27844
Epoch time:      07199.73034068
Element set:      76
Inclination:      098.7184 deg
RA of node:       207.5990 deg
Eccentricity:    0.0010331
Arg of perigee:   007.3320 deg
Mean anomaly:     352.7997 deg
Mean motion:   14.20521846 rev/day
Decay rate:        3.0e-07 rev/day^2
Epoch rev:           20995
Checksum:              311

Satellite: CO-57
Catalog number: 27848
Epoch time:      07199.96628456
Element set:      35
Inclination:      098.7168 deg
RA of node:       207.0151 deg
Eccentricity:    0.0010384
Arg of perigee:   008.5685 deg
Mean anomaly:     351.5664 deg
Mean motion:   14.20340356 rev/day
Decay rate:        6.6e-07 rev/day^2
Epoch rev:           20996
Checksum:              331

Satellite: AO-51
Catalog number: 28375
Epoch time:      07200.17151019
Element set:     866
Inclination:      098.1102 deg
RA of node:       237.8390 deg
Eccentricity:    0.0085048
Arg of perigee:   085.1652 deg
Mean anomaly:     275.9243 deg
Mean motion:   14.40574457 rev/day
Decay rate:        7.0e-08 rev/day^2
Epoch rev:           16031
Checksum:              293

Satellite: CO-56
Catalog number: 28941
Epoch time:      07200.80513034
Element set:     503
Inclination:      098.1276 deg
RA of node:       265.5553 deg
Eccentricity:    0.0222815
Arg of perigee:   157.3200 deg
Mean anomaly:     203.7814 deg
Mean motion:   15.40953610 rev/day
Decay rate:     2.2648e-04 rev/day^2
Epoch rev:            7845
Checksum:              291

Satellite: HO-59
Catalog number: 29484
Epoch time:      07200.85823475
Element set:     514
Inclination:      098.2816 deg
RA of node:       255.6352 deg
Eccentricity:    0.0201224
Arg of perigee:   148.4431 deg
Mean anomaly:     212.8865 deg
Mean motion:   15.53296313 rev/day
Decay rate:     3.6961e-04 rev/day^2
Epoch rev:            4614
Checksum:              318

Satellite: NO-60
Catalog number: 29661
Epoch time:      07150.05824307
Element set:     300
Inclination:      051.6186 deg
RA of node:       176.5045 deg
Eccentricity:    0.0007204
Arg of perigee:   190.7749 deg
Mean anomaly:     188.7342 deg
Mean motion:   16.52052832 rev/day
Decay rate:  1.3324117e-01 rev/day^2
Epoch rev:            2554
Checksum:              290

Satellite: NO-61
Catalog number: 29664
Epoch time:      07200.67701975
Element set:     309
Inclination:      051.6290 deg
RA of node:       280.9040 deg
Eccentricity:    0.0011350
Arg of perigee:   103.3225 deg
Mean anomaly:     256.9024 deg
Mean motion:   15.93772781 rev/day
Decay rate:     2.4084e-04 rev/day^2
Epoch rev:            3333
Checksum:              285

